Location: Plainartige
(45.6866°N, 1.7993°E)
Time: 05:07:45
(UTC+00:00)

Vanguard 1 - Pass Details

Date: 27 May 2022
Orbit: 649 x 3833 km, 34.2° (Epoch: 06 July)

Event Time Altitude Azimuth Distance (km) Brightness Sun altitude
Exits shadow 00:52:21 28° 207° (SSW) 3,799 12.4 -21.6°
Maximum altitude 01:00:30 47° 154° (SSE) 3,632 12.5 -21.2°
Drops below altitude 10° 01:20:40 10° 90° (E) 6,881 14.6 -19.9°
Sets 01:26:34 0° 86° (E) 7,979 15.1 -19.5°
